Lamar, CO

8:16 PM MST on November 14, 2019 (GMT -0700)
Lamar Municipal

Weather History for KLAA - September, 2019

Change the Weather History Date:

Sunday, September 8, 2019

  Actual Average Record
Temperature  
Mean Temperature 74 °F 70 °F  
Max Temperature 94 °F 85 °F 103 °F (1977)
Min Temperature 53 °F 54 °F 37 °F (2001)
Degree Days  
Heating Degree Days 0 1  
Month to date heating degree days 0 7  
Since 1 July heating degree days 0 12  
Cooling Degree Days 9 6  
Month to date cooling degree days 109 52  
Year to date cooling degree days 1211 1041  
Growing Degree Days 24 (Base 50)    
Moisture  
Dew Point 56 °F    
Average Humidity 58    
Maximum Humidity 89    
Minimum Humidity 26    
Precipitation  
Precipitation T in 0.05 in 1.35 in (1993)
Month to date precipitation T 0.40  
Year to date precipitation 7.23 12.77  
Sea Level Pressure  
Sea Level Pressure 29.78 in    
Wind  
Wind Speed 11 mph (SE)    
Max Wind Speed 26 mph    
Max Gust Speed 36 mph    
Visibility 10 miles    
Events Rain , Thunderstorm    
T = Trace of Precipitation, MM = Missing Value Source: NWS Daily Summary

Daily Weather History Graph

Daily Weather History Graph

Search for Another Location

Airport or City:

Astronomy

Sep. 08, 2019 Rise Set
Actual Time 6:26 AM MDT 7:09 PM MDT
Civil Twilight 5:59 AM MDT 7:36 PM MDT
Nautical Twilight 5:28 AM MDT 8:07 PM MDT
Astronomical Twilight 4:55 AM MDT 8:40 PM MDT
Moon 4:15 PM MDT (9/8) 1:12 AM MDT (9/8)
Length of Visible Light 13h 36m
Length of Day
12h 43m
Waxing Gibbous, 75% of the Moon is Illuminated
Sep 8
Waxing Gibbous
Sep 13
Full
Sep 21
Last Quarter
Sep 28
New
Oct 5
First Quarter

Hourly Weather History & Observations

Time (MDT) Temp. Heat Index Dew Point Humidity Pressure Visibility Wind Dir Wind Speed Gust Speed Precip Events Conditions
12:53 AM 64.0 °F - 52.0 °F 65% 29.86 in 10.0 mi South 3.5 mph - N/A   Clear
1:53 AM 63.0 °F - 52.0 °F 67% 29.84 in 10.0 mi East 6.9 mph - N/A   Clear
2:53 AM 62.1 °F - 54.0 °F 75% 29.82 in 10.0 mi SSW 4.6 mph - N/A   Clear
3:53 AM 61.0 °F - 52.0 °F 72% 29.79 in 10.0 mi Calm Calm - N/A   Clear
4:53 AM 59.0 °F - 51.1 °F 75% 29.80 in 10.0 mi ESE 6.9 mph - N/A   Clear
5:53 AM 55.9 °F - 51.1 °F 84% 29.82 in 10.0 mi NNE 5.8 mph - N/A   Clear
6:53 AM 54.0 °F - 50.0 °F 86% 29.85 in 10.0 mi WNW 3.5 mph - N/A   Clear
7:53 AM 66.0 °F - 55.0 °F 68% 29.85 in 10.0 mi NNE 4.6 mph - N/A   Clear
8:53 AM 70.0 °F - 60.1 °F 71% 29.84 in 10.0 mi NE 9.2 mph - N/A   Clear
9:53 AM 75.0 °F - 57.9 °F 55% 29.82 in 10.0 mi East 8.1 mph - N/A   Clear
10:53 AM 79.0 °F - 55.9 °F 45% 29.80 in 10.0 mi Variable 5.8 mph - N/A   Clear
11:53 AM 86.0 °F 84.7 °F 55.9 °F 36% 29.76 in 10.0 mi NE 8.1 mph - N/A   Clear
12:53 PM 90.0 °F - 52.0 °F 27% 29.75 in 10.0 mi SW 11.5 mph - N/A   Clear
1:53 PM 91.0 °F - 51.1 °F 25% 29.71 in 10.0 mi South 16.1 mph 21.9 mph N/A   Partly Cloudy
2:37 PM 93.0 °F - 52.0 °F 25% 29.84 in 10.0 mi South 10.4 mph 27.6 mph N/A Thunderstorm Thunderstorm
2:53 PM 91.9 °F - 51.1 °F 25% 29.68 in 10.0 mi South 18.4 mph 25.3 mph N/A   Mostly Cloudy
3:38 PM 90.0 °F 87.5 °F 53.1 °F 28% 29.81 in 10.0 mi South 16.1 mph 27.6 mph N/A Thunderstorm Mostly Cloudy
3:53 PM 89.1 °F 86.9 °F 54.0 °F 30% 29.66 in 10.0 mi SE 15.0 mph 29.9 mph N/A Thunderstorm Mostly Cloudy
4:53 PM 73.0 °F - 63.0 °F 71% 29.69 in 10.0 mi NW 18.4 mph 26.5 mph 0.00 in Rain , Thunderstorm Light Thunderstorms and Rain
5:53 PM 71.1 °F - 63.0 °F 75% 29.72 in 10.0 mi East 10.4 mph 21.9 mph 0.00 in Rain , Thunderstorm Light Thunderstorms and Rain
6:17 PM 73.9 °F - 62.1 °F 66% 29.82 in 10.0 mi East 12.7 mph 23.0 mph 0.00 in Rain , Thunderstorm Light Rain
6:53 PM 75.0 °F - 61.0 °F 62% 29.71 in 9.0 mi East 17.3 mph 32.2 mph 0.00 in Thunderstorm Thunderstorm
7:28 PM 75.9 °F - 59.0 °F 56% 29.86 in 10.0 mi SE 4.6 mph 26.5 mph N/A Thunderstorm Overcast
7:46 PM 73.9 °F - 60.1 °F 62% 29.86 in 10.0 mi North 16.1 mph 25.3 mph N/A   Overcast
7:53 PM 75.0 °F - 59.0 °F 57% 29.72 in 10.0 mi ENE 11.5 mph 25.3 mph N/A Thunderstorm Thunderstorm
8:08 PM 75.9 °F - 57.9 °F 54% 29.84 in 10.0 mi SE 11.5 mph 26.5 mph 0.00 in Rain , Thunderstorm Light Rain
8:19 PM 75.9 °F - 57.9 °F 54% 29.85 in 10.0 mi SE 13.8 mph 23.0 mph 0.00 in   Scattered Clouds
8:53 PM 73.9 °F - 57.9 °F 57% 29.72 in 10.0 mi ESE 10.4 mph 19.6 mph 0.00 in Thunderstorm Mostly Cloudy
9:53 PM 73.9 °F - 59.0 °F 59% 29.70 in 10.0 mi SSE 18.4 mph 26.5 mph 0.00 in   Clear
10:36 PM 73.9 °F - 59.0 °F 59% 29.84 in 10.0 mi South 16.1 mph 27.6 mph N/A Thunderstorm Mostly Cloudy
10:51 PM 73.4 °F - 60.8 °F 65% 29.85 in 10.0 mi South 13.8 mph 23.0 mph N/A   Mostly Cloudy
10:53 PM 73.0 °F - 60.1 °F 64% 29.70 in 10.0 mi South 10.4 mph 23.0 mph N/A   Mostly Cloudy
11:53 PM 73.0 °F - 59.0 °F 61% 29.68 in 10.0 mi SW 8.1 mph - N/A   Partly Cloudy